Location: Columbia
(38.9520°N, 92.3340°W)
Time: 03:08:50
(UTC-06:00)

Tiangong 1 - Visible Passes

Search period start: 18 February 2018 00:00
Search period end: 28 February 2018 00:00
Orbit: 249 x 272 km, 42.8° (Epoch: 17 February)

Date Brightness Start Highest point End Pass type
(mag) Time Alt. Az. Time Alt. Az. Time Alt. Az.
18 Feb 1.4 06:12:45 15° W 06:14:13 30° SSW 06:16:19 10° SE visible
19 Feb 2.2 06:07:47 15° WSW 06:08:45 18° SSW 06:10:28 10° SSE visible
20 Feb 2.8 06:02:41 11° SW 06:03:00 11° SW 06:03:46 10° SSW visible
